| time (UTC) | temp F | wind direction | speed MPH | gust MPH | rain 1hr in | rain 24hr in | rain mn in | humidity % | barometer mb |
| 20260507025004 | 70 | 255 | 3.0 | 10.0 | 0.00 | 0.00 | 0.00 | 49 | 1016.2 |
| 20260507024004 | 71 | 276 | 5.0 | 10.0 | 0.00 | 0.00 | 0.00 | 48 | 1016.2 |
| 20260507023503 | 71 | 258 | 4.0 | 10.0 | 0.00 | 0.00 | 0.00 | 48 | 1016.2 |
| 20260507023004 | 71 | 265 | 6.0 | 12.0 | 0.00 | 0.00 | 0.00 | 47 | 1016.3 |
| 20260507022504 | 71 | 243 | 4.0 | 12.0 | 0.00 | 0.00 | 0.00 | 47 | 1016.2 |
| 20260507022004 | 72 | 268 | 5.0 | 12.0 | 0.00 | 0.00 | 0.00 | 47 | 1016.2 |
| 20260507021505 | 72 | 273 | 5.0 | 12.0 | 0.00 | 0.00 | 0.00 | 46 | 1015.9 |
| 20260507021004 | 73 | 271 | 6.0 | 15.0 | 0.00 | 0.00 | 0.00 | 44 | 1015.9 |
| 20260507020505 | 73 | 256 | 5.0 | 15.0 | 0.00 | 0.00 | 0.00 | 44 | 1015.9 |
| 20260507020005 | 74 | 274 | 5.0 | 15.0 | 0.00 | 0.00 | 0.00 | 43 | 1015.9 |
| 20260507015504 | 74 | 260 | 4.0 | 14.0 | 0.00 | 0.00 | 0.00 | 42 | 1015.9 |
| 20260507015004 | 75 | 265 | 5.0 | 14.0 | 0.00 | 0.00 | 0.00 | 42 | 1015.9 |
| 20260507014504 | 75 | 256 | 5.0 | 12.0 | 0.00 | 0.00 | 0.00 | 41 | 1015.9 |
| 20260507014005 | 75 | 274 | 5.0 | 12.0 | 0.00 | 0.00 | 0.00 | 41 | 1015.9 |
| 20260507013505 | 75 | 248 | 6.0 | 13.0 | 0.00 | 0.00 | 0.00 | 41 | 1015.9 |
| 20260507013005 | 75 | 279 | 8.0 | 13.0 | 0.00 | 0.00 | 0.00 | 41 | 1015.6 |
| 20260507012504 | 76 | 273 | 6.0 | 14.0 | 0.00 | 0.00 | 0.00 | 40 | 1015.9 |
| 20260507012004 | 77 | 263 | 5.0 | 14.0 | 0.00 | 0.00 | 0.00 | 40 | 1015.6 |
| 20260507011504 | 77 | 258 | 5.0 | 15.0 | 0.00 | 0.00 | 0.00 | 40 | 1015.6 |
| 20260507010505 | 77 | 246 | 5.0 | 15.0 | 0.00 | 0.00 | 0.00 | 40 | 1015.5 |
| 20260507010005 | 77 | 264 | 7.0 | 15.0 | 0.00 | 0.00 | 0.00 | 40 | 1015.6 |
| 20260507005505 | 76 | 268 | 5.0 | 15.0 | 0.00 | 0.00 | 0.00 | 40 | 1015.5 |
| 20260507005005 | 77 | 270 | 9.0 | 17.0 | 0.00 | 0.00 | 0.00 | 39 | 1015.6 |
| 20260507004505 | 77 | 241 | 7.0 | 17.0 | 0.00 | 0.00 | 0.00 | 39 | 1015.5 |
| 20260507004005 | 77 | 284 | 7.0 | 15.0 | 0.00 | 0.00 | 0.00 | 38 | 1015.3 |
| 20260507003504 | 78 | 246 | 6.0 | 15.0 | 0.00 | 0.00 | 0.00 | 38 | 1015.5 |
| 20260507001504 | 79 | 299 | 6.0 | 14.0 | 0.00 | 0.00 | 0.00 | 34 | 1015.2 |
| 20260507000505 | 78 | 272 | 6.0 | 14.0 | 0.00 | 0.00 | 0.00 | 34 | 1015.2 |
| 20260507000004 | 78 | 257 | 6.0 | 13.0 | 0.00 | 0.00 | 0.00 | 34 | 1015.2 |
| 20260506235504 | 79 | 267 | 7.0 | 12.0 | 0.00 | 0.00 | 0.00 | 34 | 1015.2 |
| 20260506235004 | 79 | 258 | 5.0 | 12.0 | 0.00 | 0.00 | 0.00 | 33 | 1015.2 |
| 20260506234504 | 79 | 259 | 6.0 | 12.0 | 0.00 | 0.00 | 0.00 | 33 | 1015.2 |
| 20260506234005 | 79 | 269 | 6.0 | 12.0 | 0.00 | 0.00 | 0.00 | 34 | 1015.2 |
| 20260506233504 | 79 | 279 | 7.0 | 12.0 | 0.00 | 0.00 | 0.00 | 34 | 1015.2 |
| 20260506232504 | 79 | 282 | 5.0 | 15.0 | 0.00 | 0.00 | 0.00 | 34 | 1015.2 |
| 20260506231504 | 79 | 290 | 5.0 | 10.0 | 0.00 | 0.00 | 0.00 | 33 | 1015.2 |
| 20260506231004 | 79 | 220 | 4.0 | 10.0 | 0.00 | 0.00 | 0.00 | 36 | 1015.2 |
| 20260506230004 | 79 | 260 | 5.0 | 13.0 | 0.00 | 0.00 | 0.00 | 35 | 1015.6 |
| 20260506225505 | 79 | 306 | 5.0 | 13.0 | 0.00 | 0.00 | 0.00 | 34 | 1015.6 |
| 20260506225005 | 80 | 244 | 5.0 | 13.0 | 0.00 | 0.00 | 0.00 | 33 | 1015.6 |
| 20260506224506 | 80 | 254 | 4.0 | 9.0 | 0.00 | 0.00 | 0.00 | 34 | 1015.6 |
| 20260506224004 | 80 | 265 | 5.0 | 9.0 | 0.00 | 0.00 | 0.00 | 34 | 1015.6 |
| 20260506223504 | 80 | 257 | 4.0 | 12.0 | 0.00 | 0.00 | 0.00 | 34 | 1015.9 |
| 20260506223004 | 79 | 202 | 6.0 | 13.0 | 0.00 | 0.00 | 0.00 | 36 | 1015.9 |
| 20260506222504 | 78 | 187 | 5.0 | 13.0 | 0.00 | 0.00 | 0.00 | 37 | 1015.9 |
| 20260506222005 | 79 | 272 | 6.0 | 10.0 | 0.00 | 0.00 | 0.00 | 33 | 1015.9 |
| 20260506221504 | 80 | 242 | 5.0 | 10.0 | 0.00 | 0.00 | 0.00 | 34 | 1015.9 |
| 20260506221004 | 79 | 220 | 6.0 | 10.0 | 0.00 | 0.00 | 0.00 | 35 | 1015.9 |
| 20260506220004 | 78 | 224 | 6.0 | 12.0 | 0.00 | 0.00 | 0.00 | 36 | 1016.2 |
| 20260506215505 | 78 | 190 | 3.0 | 9.0 | 0.00 | 0.00 | 0.00 | 35 | 1016.2 |
| 20260506215004 | 78 | 257 | 5.0 | 9.0 | 0.00 | 0.00 | 0.00 | 35 | 1016.2 |
| 20260506214005 | 77 | 198 | 5.0 | 9.0 | 0.00 | 0.00 | 0.00 | 37 | 1016.2 |
| 20260506213504 | 76 | 253 | 4.0 | 12.0 | 0.00 | 0.00 | 0.00 | 37 | 1016.6 |
| 20260506213005 | 76 | 258 | 5.0 | 12.0 | 0.00 | 0.00 | 0.00 | 36 | 1016.6 |
| 20260506212505 | 75 | 296 | 7.0 | 12.0 | 0.00 | 0.00 | 0.00 | 35 | 1016.6 |
| 20260506212005 | 76 | 264 | 6.0 | 12.0 | 0.00 | 0.00 | 0.00 | 34 | 1016.6 |
| 20260506211505 | 76 | 219 | 5.0 | 8.0 | 0.00 | 0.00 | 0.00 | 37 | 1016.9 |
| 20260506211004 | 75 | 253 | 5.0 | 10.0 | 0.00 | 0.00 | 0.00 | 35 | 1016.9 |
| 20260506210505 | 75 | 241 | 3.0 | 10.0 | 0.00 | 0.00 | 0.00 | 37 | 1016.9 |
| 20260506205503 | 75 | 264 | 4.0 | 12.0 | 0.00 | 0.00 | 0.00 | 37 | 1017.2 |
| 20260506205004 | 75 | 250 | 5.0 | 12.0 | 0.00 | 0.00 | 0.00 | 37 | 1017.2 |
| 20260506204504 | 75 | 294 | 6.0 | 12.0 | 0.00 | 0.00 | 0.00 | 36 | 1017.2 |
| 20260506203505 | 75 | 218 | 5.0 | 10.0 | 0.00 | 0.00 | 0.00 | 39 | 1017.2 |
| 20260506203004 | 74 | 229 | 4.0 | 10.0 | 0.00 | 0.00 | 0.00 | 39 | 1017.2 |
| 20260506202505 | 74 | 282 | 5.0 | 10.0 | 0.00 | 0.00 | 0.00 | 38 | 1017.3 |
| 20260506202005 | 74 | 245 | 2.0 | 8.0 | 0.00 | 0.00 | 0.00 | 39 | 1017.3 |
| 20260506201504 | 73 | 223 | 5.0 | 9.0 | 0.00 | 0.00 | 0.00 | 42 | 1017.6 |
| 20260506201005 | 72 | 296 | 5.0 | 9.0 | 0.00 | 0.00 | 0.00 | 41 | 1017.6 |
| 20260506200504 | 72 | 289 | 6.0 | 8.0 | 0.00 | 0.00 | 0.00 | 41 | 1017.6 |
| 20260506200005 | 72 | 349 | 5.0 | 8.0 | 0.00 | 0.00 | 0.00 | 41 | 1017.6 |
| 20260506195503 | 72 | 270 | 2.0 | 8.0 | 0.00 | 0.00 | 0.00 | 41 | 1017.6 |
| 20260506195004 | 72 | 319 | 3.0 | 8.0 | 0.00 | 0.00 | 0.00 | 40 | 1017.9 |
| 20260506194004 | 74 | 217 | 4.0 | 7.0 | 0.00 | 0.00 | 0.00 | 41 | 1017.9 |
| 20260506193504 | 73 | 171 | 4.0 | 9.0 | 0.00 | 0.00 | 0.00 | 42 | 1017.9 |
| 20260506193004 | 72 | 211 | 3.0 | 9.0 | 0.00 | 0.00 | 0.00 | 41 | 1018.2 |
| 20260506192504 | 72 | 227 | 4.0 | 9.0 | 0.00 | 0.00 | 0.00 | 42 | 1018.2 |
| 20260506192004 | 72 | 219 | 2.0 | 7.0 | 0.00 | 0.00 | 0.00 | 43 | 1018.3 |
| 20260506191504 | 71 | 330 | 3.0 | 7.0 | 0.00 | 0.00 | 0.00 | 43 | 1018.3 |
| 20260506191004 | 71 | 36 | 1.0 | 6.0 | 0.00 | 0.00 | 0.00 | 43 | 1018.3 |
| 20260506190004 | 71 | 134 | 2.0 | 7.0 | 0.00 | 0.00 | 0.00 | 44 | 1018.6 |
| 20260506185506 | 70 | 206 | 2.0 | 7.0 | 0.00 | 0.00 | 0.00 | 44 | 1018.6 |
| 20260506185004 | 70 | 192 | 3.0 | 7.0 | 0.00 | 0.00 | 0.00 | 45 | 1018.6 |
| 20260506184004 | 69 | 232 | 2.0 | 7.0 | 0.00 | 0.00 | 0.00 | 45 | 1018.9 |
| 20260506183005 | 70 | 126 | 3.0 | 7.0 | 0.00 | 0.00 | 0.00 | 44 | 1018.9 |
| 20260506182004 | 69 | 141 | 3.0 | 7.0 | 0.00 | 0.00 | 0.00 | 49 | 1018.9 |
| 20260506180504 | 68 | 316 | 3.0 | 7.0 | 0.00 | 0.00 | 0.00 | 46 | 1018.9 |
| 20260506180007 | 68 | 152 | 3.0 | 7.0 | 0.00 | 0.00 | 0.00 | 48 | 1019.0 |
| 20260506175004 | 67 | 226 | 3.0 | 6.0 | 0.00 | 0.00 | 0.00 | 48 | 1018.9 |
| 20260506174504 | 67 | 196 | 3.0 | 6.0 | 0.00 | 0.00 | 0.00 | 50 | 1019.0 |
| 20260506174004 | 66 | 246 | 3.0 | 5.0 | 0.00 | 0.00 | 0.00 | 48 | 1018.9 |
| 20260506173003 | 66 | 253 | 2.0 | 5.0 | 0.00 | 0.00 | 0.00 | 50 | 1019.0 |
| 20260506172504 | 65 | 247 | 2.0 | 5.0 | 0.00 | 0.00 | 0.00 | 51 | 1019.0 |
| 20260506172004 | 65 | 64 | 2.0 | 6.0 | 0.00 | 0.00 | 0.00 | 50 | 1018.9 |
| 20260506171504 | 65 | 347 | 3.0 | 6.0 | 0.00 | 0.00 | 0.00 | 50 | 1019.0 |
| 20260506171004 | 65 | 310 | 3.0 | 6.0 | 0.00 | 0.00 | 0.00 | 51 | 1019.0 |
| 20260506170004 | 64 | 157 | 2.0 | 5.0 | 0.00 | 0.00 | 0.00 | 53 | 1019.0 |
| 20260506165003 | 63 | 204 | 3.0 | 6.0 | 0.00 | 0.00 | 0.00 | 58 | 1019.3 |
| 20260506164004 | 62 | 290 | 3.0 | 6.0 | 0.00 | 0.00 | 0.00 | 56 | 1019.3 |
| 20260506163004 | 62 | 343 | 2.0 | 5.0 | 0.00 | 0.00 | 0.00 | 57 | 1019.3 |
| 20260506162503 | 61 | 54 | 1.0 | 5.0 | 0.00 | 0.00 | 0.00 | 59 | 1019.3 |
| 20260506162004 | 61 | 26 | 2.0 | 5.0 | 0.00 | 0.00 | 0.00 | 58 | 1019.3 |
| 20260506161504 | 61 | 316 | 2.0 | 6.0 | 0.00 | 0.00 | 0.00 | 60 | 1019.3 |
| 20260506161003 | 61 | 282 | 3.0 | 6.0 | 0.00 | 0.00 | 0.00 | 59 | 1019.1 |
| 20260506160004 | 61 | 285 | 1.0 | 3.0 | 0.00 | 0.00 | 0.00 | 62 | 1019.0 |
| 20260506155505 | 60 | 131 | 2.0 | 3.0 | 0.00 | 0.00 | 0.00 | 63 | 1019.0 |
| 20260506155005 | 60 | 233 | 2.0 | 6.0 | 0.00 | 0.00 | 0.00 | 63 | 1018.9 |
| 20260506153504 | 59 | 109 | 2.0 | 3.0 | 0.00 | 0.00 | 0.00 | 65 | 1018.9 |
| 20260506153004 | 58 | 330 | 2.0 | 3.0 | 0.00 | 0.00 | 0.00 | 66 | 1019.3 |
| 20260506152503 | 58 | 85 | 3.0 | 5.0 | 0.00 | 0.00 | 0.00 | 67 | 1019.0 |
| 20260506152004 | 58 | 59 | 1.0 | 5.0 | 0.00 | 0.00 | 0.00 | 68 | 1019.0 |
| 20260506151004 | 57 | 20 | 1.0 | 3.0 | 0.00 | 0.00 | 0.00 | 70 | 1019.0 |
| 20260506150504 | 57 | 53 | 2.0 | 3.0 | 0.00 | 0.00 | 0.00 | 70 | 1019.3 |
| 20260506150004 | 56 | 59 | 2.0 | 3.0 | 0.00 | 0.00 | 0.00 | 71 | 1019.3 |
| 20260506145503 | 56 | 40 | 1.0 | 3.0 | 0.00 | 0.00 | 0.00 | 72 | 1019.3 |
| 20260506145005 | 56 | 13 | 2.0 | 5.0 | 0.00 | 0.00 | 0.00 | 72 | 1019.3 |
| 20260506144504 | 56 | 40 | 2.0 | 6.0 | 0.00 | 0.00 | 0.00 | 72 | 1019.3 |
| 20260506144004 | 55 | 39 | 3.0 | 6.0 | 0.00 | 0.00 | 0.00 | 72 | 1019.2 |
| 20260506143505 | 55 | 77 | 3.0 | 6.0 | 0.00 | 0.00 | 0.00 | 73 | 1019.3 |
| 20260506143005 | 54 | 52 | 1.0 | 5.0 | 0.00 | 0.00 | 0.00 | 73 | 1019.3 |
| 20260506142504 | 54 | 39 | 3.0 | 5.0 | 0.00 | 0.00 | 0.00 | 74 | 1019.0 |
| 20260506142004 | 54 | 63 | 3.0 | 5.0 | 0.00 | 0.00 | 0.00 | 75 | 1019.0 |
| 20260506141504 | 53 | 54 | 2.0 | 3.0 | 0.00 | 0.00 | 0.00 | 77 | 1019.0 |
| 20260506141004 | 53 | 40 | 2.0 | 3.0 | 0.00 | 0.00 | 0.00 | 78 | 1019.0 |
| 20260506140503 | 53 | 25 | 2.0 | 3.0 | 0.00 | 0.00 | 0.00 | 80 | 1018.9 |
| 20260506140005 | 52 | 60 | 1.0 | 2.0 | 0.00 | 0.00 | 0.00 | 81 | 1019.0 |
| 20260506135504 | 52 | 72 | 1.0 | 2.0 | 0.00 | 0.00 | 0.00 | 82 | 1019.0 |
| 20260506135004 | 52 | 50 | 0.0 | 2.0 | 0.00 | 0.00 | 0.00 | 82 | 1018.9 |
| 20260506134503 | 52 | 70 | 1.0 | 2.0 | 0.00 | 0.00 | 0.00 | 83 | 1018.9 |
| 20260506134004 | 51 | 26 | 1.0 | 2.0 | 0.00 | 0.00 | 0.00 | 83 | 1018.9 |
| 20260506133504 | 51 | 36 | 1.0 | 2.0 | 0.00 | 0.00 | 0.00 | 84 | 1018.9 |
| 20260506133005 | 51 | 68 | 1.0 | 2.0 | 0.00 | 0.00 | 0.00 | 84 | 1018.6 |
| 20260506132504 | 51 | 70 | 1.0 | 2.0 | 0.00 | 0.00 | 0.00 | 84 | 1018.6 |
| 20260506132005 | 50 | 40 | 1.0 | 2.0 | 0.00 | 0.00 | 0.00 | 84 | 1018.6 |
| 20260506131505 | 50 | 19 | 1.0 | 2.0 | 0.00 | 0.00 | 0.00 | 84 | 1018.6 |
| 20260506131003 | 50 | 13 | 1.0 | 3.0 | 0.00 | 0.00 | 0.00 | 84 | 1018.6 |
| 20260506130504 | 50 | 19 | 2.0 | 3.0 | 0.00 | 0.00 | 0.00 | 84 | 1018.3 |
| 20260506130004 | 49 | 358 | 1.0 | 2.0 | 0.00 | 0.00 | 0.00 | 84 | 1018.3 |
| 20260506125504 | 50 | 343 | 1.0 | 2.0 | 0.00 | 0.00 | 0.00 | 84 | 1018.3 |
| 20260506124504 | 50 | 3 | 1.0 | 2.0 | 0.00 | 0.00 | 0.00 | 84 | 1018.3 |
| 20260506124004 | 50 | 5 | 2.0 | 2.0 | 0.00 | 0.00 | 0.00 | 84 | 1018.3 |
| 20260506123504 | 50 | 16 | 1.0 | 2.0 | 0.00 | 0.00 | 0.00 | 84 | 1018.3 |
| 20260506123004 | 50 | 4 | 2.0 | 2.0 | 0.00 | 0.00 | 0.00 | 84 | 1018.3 |
| 20260506122004 | 50 | 27 | 1.0 | 2.0 | 0.00 | 0.00 | 0.00 | 84 | 1018.3 |
| 20260506121504 | 50 | 40 | 1.0 | 2.0 | 0.00 | 0.00 | 0.00 | 83 | 1018.2 |
| 20260506121004 | 50 | 43 | 1.0 | 2.0 | 0.00 | 0.01 | 0.00 | 83 | 1018.3 |
| 20260506120504 | 50 | 43 | 1.0 | 2.0 | 0.00 | 0.02 | 0.00 | 83 | 1018.3 |
| 20260506120005 | 50 | 29 | 1.0 | 2.0 | 0.00 | 0.02 | 0.00 | 82 | 1018.3 |
| 20260506115505 | 50 | 34 | 1.0 | 2.0 | 0.00 | 0.03 | 0.00 | 82 | 1018.3 |
| 20260506115004 | 50 | 61 | 1.0 | 1.0 | 0.00 | 0.03 | 0.00 | 82 | 1018.2 |
| 20260506114504 | 51 | 19 | 1.0 | 2.0 | 0.00 | 0.04 | 0.00 | 82 | 1018.2 |
| 20260506114005 | 50 | 12 | 1.0 | 2.0 | 0.00 | 0.06 | 0.00 | 82 | 1018.3 |
| 20260506113505 | 51 | 39 | 1.0 | 1.0 | 0.00 | 0.07 | 0.00 | 82 | 1018.3 |
| 20260506113004 | 51 | 26 | 1.0 | 1.0 | 0.00 | 0.08 | 0.00 | 82 | 1018.3 |
| 20260506112504 | 51 | 68 | 0.0 | 0.0 | 0.00 | 0.08 | 0.00 | 81 | 1017.9 |
| 20260506112004 | 51 | 40 | 0.0 | 0.0 | 0.00 | 0.08 | 0.00 | 81 | 1017.9 |
| 20260506111504 | 51 | 40 | 0.0 | 1.0 | 0.00 | 0.08 | 0.00 | 81 | 1017.9 |
| 20260506110504 | 51 | 20 | 0.0 | 2.0 | 0.00 | 0.08 | 0.00 | 81 | 1018.0 |
| 20260506105504 | 51 | 37 | 1.0 | 1.0 | 0.00 | 0.08 | 0.00 | 81 | 1017.9 |
| 20260506105005 | 51 | 20 | 1.0 | 1.0 | 0.00 | 0.08 | 0.00 | 80 | 1017.9 |
| 20260506104004 | 51 | 39 | 1.0 | 2.0 | 0.00 | 0.09 | 0.00 | 80 | 1017.9 |
| 20260506103504 | 51 | 134 | 1.0 | 2.0 | 0.00 | 0.10 | 0.00 | 79 | 1017.9 |
| 20260506103004 | 51 | 104 | 1.0 | 2.0 | 0.00 | 0.10 | 0.00 | 79 | 1017.9 |
| 20260506102504 | 52 | 112 | 1.0 | 2.0 | 0.00 | 0.10 | 0.00 | 79 | 1017.9 |
| 20260506101505 | 53 | 90 | 1.0 | 2.0 | 0.00 | 0.10 | 0.00 | 79 | 1017.9 |
| 20260506101004 | 52 | 54 | 2.0 | 2.0 | 0.00 | 0.10 | 0.00 | 79 | 1017.9 |
| 20260506100504 | 53 | 7 | 1.0 | 2.0 | 0.00 | 0.10 | 0.00 | 79 | 1017.9 |
| 20260506100005 | 53 | 311 | 2.0 | 3.0 | 0.00 | 0.10 | 0.00 | 79 | 1017.9 |
| 20260506095504 | 53 | 311 | 2.0 | 3.0 | 0.00 | 0.10 | 0.00 | 79 | 1017.9 |
| 20260506095003 | 53 | 283 | 2.0 | 2.0 | 0.00 | 0.10 | 0.00 | 80 | 1017.9 |
| 20260506094503 | 52 | 294 | 2.0 | 3.0 | 0.00 | 0.10 | 0.00 | 80 | 1017.9 |
| 20260506094004 | 53 | 325 | 1.0 | 3.0 | 0.00 | 0.10 | 0.00 | 80 | 1017.9 |
| 20260506093504 | 53 | 305 | 2.0 | 3.0 | 0.00 | 0.10 | 0.00 | 80 | 1017.9 |
| 20260506092504 | 52 | 324 | 1.0 | 2.0 | 0.00 | 0.10 | 0.00 | 80 | 1017.9 |
| 20260506092005 | 52 | 314 | 1.0 | 2.0 | 0.00 | 0.10 | 0.00 | 79 | 1017.9 |
| 20260506091004 | 53 | 290 | 1.0 | 1.0 | 0.00 | 0.10 | 0.00 | 78 | 1017.9 |
| 20260506090504 | 53 | 321 | 1.0 | 2.0 | 0.00 | 0.10 | 0.00 | 78 | 1017.9 |
| 20260506090005 | 53 | 20 | 1.0 | 2.0 | 0.00 | 0.10 | 0.00 | 78 | 1017.9 |
| 20260506085005 | 53 | 348 | 1.0 | 2.0 | 0.00 | 0.10 | 0.00 | 78 | 1018.3 |
| 20260506084504 | 53 | 332 | 1.0 | 2.0 | 0.00 | 0.10 | 0.00 | 78 | 1018.3 |
| 20260506084005 | 54 | 330 | 1.0 | 2.0 | 0.00 | 0.10 | 0.00 | 78 | 1018.3 |
| 20260506083005 | 53 | 307 | 1.0 | 2.0 | 0.00 | 0.10 | 0.00 | 77 | 1018.3 |
| 20260506082505 | 53 | 351 | 1.0 | 2.0 | 0.00 | 0.10 | 0.00 | 77 | 1018.3 |
| 20260506082004 | 53 | 7 | 1.0 | 2.0 | 0.00 | 0.10 | 0.00 | 77 | 1018.3 |
| 20260506081504 | 53 | 326 | 1.0 | 2.0 | 0.00 | 0.10 | 0.00 | 77 | 1018.2 |
| 20260506081005 | 54 | 15 | 0.0 | 1.0 | 0.00 | 0.10 | 0.00 | 77 | 1018.3 |
| 20260506080504 | 54 | 20 | 0.0 | 2.0 | 0.00 | 0.10 | 0.00 | 76 | 1018.3 |
| 20260506073505 | 55 | 40 | 1.0 | 2.0 | 0.00 | 0.10 | 0.00 | 74 | 1018.3 |
| 20260506073004 | 55 | 0 | 1.0 | 1.0 | 0.00 | 0.10 | 0.00 | 73 | 1018.3 |
| 20260506072504 | 54 | 40 | 1.0 | 2.0 | 0.00 | 0.10 | 0.00 | 73 | 1018.3 |
| 20260506071504 | 55 | 358 | 1.0 | 2.0 | 0.00 | 0.10 | 0.00 | 73 | 1018.3 |
| 20260506062505 | 57 | 20 | 0.0 | 2.0 | 0.00 | 0.10 | 0.10 | 69 | 1018.0 |
| 20260506061504 | 57 | 306 | 1.0 | 2.0 | 0.00 | 0.10 | 0.10 | 69 | 1017.9 |
| 20260506061004 | 57 | 289 | 1.0 | 2.0 | 0.00 | 0.10 | 0.10 | 69 | 1017.9 |
| 20260506051004 | 58 | 276 | 2.0 | 3.0 | 0.00 | 0.10 | 0.10 | 66 | 1017.6 |
| 20260506050504 | 58 | 257 | 1.0 | 5.0 | 0.00 | 0.10 | 0.10 | 66 | 1017.6 |
| 20260506045004 | 58 | 253 | 2.0 | 6.0 | 0.00 | 0.10 | 0.10 | 65 | 1017.3 |
| 20260506044005 | 58 | 249 | 2.0 | 5.0 | 0.00 | 0.10 | 0.10 | 64 | 1017.2 |
| 20260506043505 | 59 | 230 | 1.0 | 5.0 | 0.00 | 0.10 | 0.10 | 63 | 1016.9 |
| 20260506043004 | 59 | 241 | 3.0 | 7.0 | 0.00 | 0.10 | 0.10 | 62 | 1016.9 |
| 20260506042505 | 59 | 250 | 3.0 | 7.0 | 0.00 | 0.10 | 0.10 | 62 | 1016.9 |
| 20260506042005 | 59 | 229 | 3.0 | 10.0 | 0.00 | 0.10 | 0.10 | 61 | 1016.8 |
| 20260506040004 | 60 | 267 | 2.0 | 5.0 | 0.00 | 0.10 | 0.10 | 58 | 1016.6 |
| 20260506035505 | 60 | 276 | 2.0 | 7.0 | 0.00 | 0.10 | 0.10 | 57 | 1016.2 |
| 20260506035004 | 60 | 297 | 3.0 | 9.0 | 0.00 | 0.10 | 0.10 | 57 | 1016.6 |
| 20260506034504 | 60 | 280 | 4.0 | 9.0 | 0.00 | 0.10 | 0.10 | 56 | 1016.2 |
| 20260506034004 | 60 | 251 | 4.0 | 9.0 | 0.00 | 0.10 | 0.10 | 56 | 1016.2 |
| 20260506033504 | 61 | 255 | 5.0 | 10.0 | 0.00 | 0.10 | 0.10 | 56 | 1016.2 |
| 20260506033004 | 61 | 272 | 5.0 | 10.0 | 0.00 | 0.10 | 0.10 | 55 | 1015.9 |
| 20260506032505 | 61 | 259 | 4.0 | 7.0 | 0.00 | 0.10 | 0.10 | 55 | 1015.9 |
| 20260506032004 | 61 | 263 | 2.0 | 7.0 | 0.00 | 0.10 | 0.10 | 55 | 1015.9 |
| 20260506031505 | 61 | 267 | 3.0 | 9.0 | 0.00 | 0.10 | 0.10 | 54 | 1015.6 |
| 20260506030504 | 61 | 273 | 5.0 | 9.0 | 0.00 | 0.10 | 0.10 | 53 | 1015.5 |